Crane Lake, MN

1:03 AM CST on November 22, 2017 (GMT -0600)
Crane Lake

Weather History for KCDD - May, 2013

Change the Weather History Date:

Thursday, May 23, 2013

  Actual Average Record
Temperature  
Mean Temperature 48 °F -  
Max Temperature 60 °F 62 °F 82 °F (2006)
Min Temperature 35 °F 38 °F 28 °F (2014)
Degree Days  
Heating Degree Days 18    
Moisture  
Dew Point 28 °F    
Average Humidity 51    
Maximum Humidity 70    
Minimum Humidity 22    
Precipitation  
Precipitation 0.00 in - - ()
Sea Level Pressure  
Sea Level Pressure 30.31 in    
Wind  
Wind Speed 5 mph (North)    
Max Wind Speed 9 mph    
Max Gust Speed -    
Visibility 10 miles    
Events      
Averages and records for this station are not official NWS values.
T = Trace of Precipitation, MM = Missing Value Source: NWS Daily Summary

Daily Weather History Graph

Daily Weather History Graph

Search for Another Location

Airport or City:

Trip Planner

Search our weather history database for the weather conditions in past years. The results will help you decide how hot, cold, wet, or windy it might be!

Date:

Astronomy

May. 23, 2013 Rise Set
Actual Time 5:20 AM CDT 8:53 PM CDT
Civil Twilight 4:41 AM CDT 9:32 PM CDT
Nautical Twilight 3:50 AM CDT 10:24 PM CDT
Astronomical Twilight 2:40 AM CDT 11:35 PM CDT
Moon 7:20 PM CDT (5/23) 4:14 AM CDT (5/23)
Length of Visible Light 16h 50m
Length of Day
15h 32m
Waxing Gibbous, 97% of the Moon is Illuminated
May 23
Waxing Gibbous
May 24
Full
May 31
Last Quarter
Jun 8
New
Jun 16
First Quarter

Hourly Weather History & Observations

Time (CDT) Temp. Windchill Dew Point Humidity Pressure Visibility Wind Dir Wind Speed Gust Speed Precip Events Conditions
12:09 AM 46.4 °F 42.9 °F 35.6 °F 66% 30.17 in 10.0 mi North 6.9 mph - N/A   Clear
12:29 AM 46.4 °F 44.3 °F 33.8 °F 62% 30.17 in 10.0 mi North 4.6 mph - N/A   Clear
12:49 AM 46.4 °F 44.3 °F 33.8 °F 62% 30.18 in 10.0 mi North 4.6 mph - N/A   Clear
1:09 AM 44.6 °F 42.2 °F 33.8 °F 66% 30.19 in 10.0 mi North 4.6 mph - N/A   Clear
1:29 AM 44.6 °F 43.1 °F 32.0 °F 61% 30.19 in 10.0 mi NNE 3.5 mph - N/A   Clear
1:49 AM 42.8 °F 41.1 °F 32.0 °F 66% 30.20 in 10.0 mi NNE 3.5 mph - N/A   Clear
2:09 AM 42.8 °F 40.1 °F 32.0 °F 66% 30.21 in 10.0 mi NNE 4.6 mph - N/A   Clear
2:30 AM 42.8 °F 41.1 °F 30.2 °F 61% 30.22 in 10.0 mi NNE 3.5 mph - N/A   Clear
2:49 AM 41.0 °F 38.0 °F 28.4 °F 61% 30.22 in 10.0 mi NNE 4.6 mph - N/A   Clear
3:10 AM 41.0 °F 38.0 °F 26.6 °F 57% 30.23 in 10.0 mi NNE 4.6 mph - N/A   Clear
3:29 AM 39.2 °F - 26.6 °F 61% 30.24 in 10.0 mi Calm Calm - N/A   Clear
3:49 AM 37.4 °F - 26.6 °F 65% 30.25 in 10.0 mi Calm Calm - N/A   Clear
4:10 AM 37.4 °F - 26.6 °F 65% 30.26 in 10.0 mi Calm Calm - N/A   Clear
4:29 AM 37.4 °F - 26.6 °F 65% 30.27 in 10.0 mi Calm Calm - N/A   Clear
4:49 AM 35.6 °F - 26.6 °F 70% 30.28 in 10.0 mi Calm Calm - N/A   Clear
5:10 AM 35.6 °F 30.7 °F 26.6 °F 70% 30.29 in 10.0 mi North 5.8 mph - N/A   Clear
5:29 AM 35.6 °F 32.8 °F 26.6 °F 70% 30.30 in 10.0 mi North 3.5 mph - N/A   Clear
5:49 AM 35.6 °F 31.7 °F 26.6 °F 70% 30.31 in 10.0 mi NNE 4.6 mph - N/A   Clear
6:09 AM 35.6 °F 31.7 °F 26.6 °F 70% 30.31 in 10.0 mi North 4.6 mph - N/A   Clear
6:29 AM 35.6 °F 32.8 °F 26.6 °F 70% 30.32 in 10.0 mi NNE 3.5 mph - N/A   Clear
6:49 AM 39.2 °F 34.2 °F 28.4 °F 65% 30.33 in 10.0 mi NNE 6.9 mph - N/A   Clear
7:09 AM 41.0 °F 36.4 °F 30.2 °F 65% 30.33 in 10.0 mi North 6.9 mph - N/A   Clear
7:29 AM 41.0 °F 39.0 °F 30.2 °F 65% 30.34 in 10.0 mi North 3.5 mph - N/A   Clear
7:49 AM 42.8 °F 38.6 °F 30.2 °F 61% 30.35 in 10.0 mi North 6.9 mph - N/A   Clear
8:09 AM 42.8 °F 38.0 °F 28.4 °F 57% 30.35 in 10.0 mi North 8.1 mph - N/A   Clear
8:29 AM 42.8 °F 38.0 °F 28.4 °F 57% 30.36 in 10.0 mi North 8.1 mph - N/A   Clear
8:50 AM 44.6 °F 40.7 °F 28.4 °F 53% 30.36 in 10.0 mi North 6.9 mph - N/A   Clear
9:09 AM 44.6 °F 40.7 °F 28.4 °F 53% 30.36 in 10.0 mi North 6.9 mph - N/A   Clear
9:29 AM 46.4 °F 42.4 °F 28.4 °F 50% 30.37 in 10.0 mi North 8.1 mph - N/A   Clear
9:49 AM 46.4 °F 42.9 °F 28.4 °F 50% 30.37 in 10.0 mi North 6.9 mph - N/A   Clear
10:09 AM 48.2 °F - 28.4 °F 46% 30.37 in 10.0 mi North 5.8 mph - N/A   Clear
10:30 AM 48.2 °F - 30.2 °F 50% 30.37 in 10.0 mi NNW 6.9 mph - N/A   Clear
10:49 AM 50.0 °F - 28.4 °F 43% 30.36 in 10.0 mi NNW 5.8 mph - N/A   Clear
11:09 AM 51.8 °F - 28.4 °F 41% 30.36 in 10.0 mi NNW 4.6 mph - N/A   Clear
11:30 AM 51.8 °F - 28.4 °F 41% 30.36 in 10.0 mi NNW 6.9 mph - N/A   Clear
11:49 AM 53.6 °F - 26.6 °F 35% 30.36 in 10.0 mi NW 4.6 mph - N/A   Clear
12:09 PM 53.6 °F - 26.6 °F 35% 30.36 in 10.0 mi NNW 6.9 mph - N/A   Clear
12:29 PM 53.6 °F - 26.6 °F 35% 30.36 in 10.0 mi NNW 4.6 mph - N/A   Clear
12:49 PM 53.6 °F - 26.6 °F 35% 30.36 in 10.0 mi NNE 8.1 mph - N/A   Clear
1:10 PM 55.4 °F - 24.8 °F 31% 30.35 in 10.0 mi North 6.9 mph - N/A   Clear
1:29 PM 55.4 °F - 26.6 °F 33% 30.35 in 10.0 mi NNW 6.9 mph - N/A   Clear
1:49 PM 57.2 °F - 24.8 °F 29% 30.35 in 10.0 mi North 5.8 mph - N/A   Clear
2:09 PM 57.2 °F - 24.8 °F 29% 30.35 in 10.0 mi North 4.6 mph - N/A   Clear
2:29 PM 57.2 °F - 24.8 °F 29% 30.34 in 10.0 mi North 9.2 mph - N/A   Clear
2:49 PM 57.2 °F - 23.0 °F 27% 30.34 in 10.0 mi NW 6.9 mph - N/A   Clear
3:09 PM 59.0 °F - 21.2 °F 23% 30.34 in 10.0 mi NW 6.9 mph - N/A   Clear
3:29 PM 59.0 °F - 21.2 °F 23% 30.34 in 10.0 mi NW 6.9 mph - N/A   Clear
3:49 PM 59.0 °F - 21.2 °F 23% 30.33 in 10.0 mi North 4.6 mph - N/A   Clear
4:11 PM 60.8 °F - 21.2 °F 22% 30.33 in 10.0 mi NW 9.2 mph - N/A   Clear
4:29 PM 60.8 °F - 21.2 °F 22% 30.33 in 10.0 mi NW 5.8 mph - N/A   Clear